Total_Precipitation_Accumulation
0.13 0.13 0.11 0.13 0.11 0.08 0.09 0.08 0.09 0.07 0.05 0.08 0.06 0.06 0.06 0.06 0.04 0.04 0.05 0.05 0.03 0.03 0.03 0.01 0.01 0.02 0.00 0.01 0.00 0.00 0.00 0.01 0.00 0.00 0.00 0.00 0.00 0.00 0.00 0.00 0.00 0.00 0.00 0.00 0.00 0.00 0.00 0.00 0.00 0.00 0.00 0.00 0.00 0.00 0.00 0.00 0.00 0.00 0.00 0.00 0.00 0.00 0.00 0.00 0.00 0.00 0.01 0.01 0.01 0.00 0.00 0.01 0.00 0.00 0.00 0.00 0.02 0.01 0.02 0.01 0.10 0.06 0.33 0.57 0.82 0.69 1.01 1.13
0.14 0.10 0.12 0.11 0.11 0.10 0.09 0.09 0.08 0.08 0.06 0.05 0.06 0.05 0.06 0.05 0.06 0.03 0.05 0.04 0.03 0.02 0.02 0.04 0.01 0.00 0.01 0.00 0.00 0.00 0.00 0.00 0.00 0.00 0.00 0.00 0.00 0.00 0.00 0.00 0.00 0.00 0.00 0.00 0.00 0.00 0.00 0.00 0.00 0.00 0.00 0.00 0.00 0.00 0.00 0.00 0.00 0.00 0.00 0.00 0.00 0.00 0.00 0.00 0.00 0.00 0.00 0.00 0.00 0.00 0.00 0.01 0.01 0.00 0.00 0.04 0.03 0.06 0.12 0.12 0.39 0.32 0.52 0.71 0.78 1.11 0.58 0.89
0.12 0.12 0.12 0.11 0.09 0.09 0.09 0.07 0.07 0.07 0.08 0.06 0.06 0.07 0.06 0.05 0.05 0.06 0.03 0.04 0.03 0.02 0.02 0.02 0.02 0.01 0.00 0.00 0.00 0.00 0.00 0.00 0.00 0.00 0.00 0.00 0.00 0.00 0.00 0.00 0.00 0.00 0.00 0.00 0.00 0.00 0.00 0.00 0.00 0.00 0.00 0.00 0.00 0.00 0.00 0.00 0.00 0.00 0.00 0.00 0.00 0.00 0.00 0.00 0.00 0.00 0.00 0.00 0.02 0.00 0.00 0.01 0.00 0.00 0.00 0.01 0.05 0.05 0.08 0.20 0.43 0.46 0.67 0.84 0.90 0.75 0.60 0.69
0.11 0.11 0.12 0.10 0.09 0.09 0.09 0.08 0.08 0.08 0.07 0.08 0.06 0.06 0.06 0.06 0.05 0.06 0.06 0.05 0.03 0.03 0.04 0.03 0.01 0.01 0.01 0.00 0.00 0.00 0.00 0.00 0.00 0.00 0.00 0.00 0.00 0.00 0.00 0.00 0.00 0.00 0.00 0.00 0.00 0.00 0.00 0.00 0.00 0.00 0.00 0.00 0.00 0.00 0.00 0.00 0.00 0.00 0.00 0.00 0.00 0.00 0.00 0.00 0.00 0.00 0.00 0.00 0.00 0.00 0.00 0.00 0.00 0.00 0.01 0.03 0.08 0.11 0.17 0.15 0.38 0.43 0.60 0.66 0.51 0.82 1.30 1.66
0.10 0.11 0.11 0.08 0.09 0.08 0.09 0.09 0.08 0.07 0.07 0.07 0.06 0.06 0.09 0.06 0.05 0.05 0.07 0.05 0.04 0.05 0.04 0.02 0.01 0.01 0.00 0.01 0.00 0.00 0.00 0.00 0.00 0.00 0.00 0.00 0.00 0.00 0.00 0.00 0.00 0.00 0.00 0.00 0.00 0.00 0.00 0.00 0.00 0.00 0.00 0.00 0.00 0.00 0.00 0.00 0.00 0.00 0.00 0.00 0.00 0.00 0.00 0.00 0.00 0.00 0.00 0.00 0.00 0.00 0.00 0.00 0.00 0.00 0.00 0.01 0.10 0.32 0.18 0.24 0.25 0.45 0.52 0.79 0.77 1.38 0.85 1.24
0.09 0.10 0.11 0.08 0.08 0.07 0.11 0.07 0.08 0.07 0.08 0.07 0.06 0.06 0.06 0.07 0.06 0.07 0.05 0.06 0.05 0.04 0.03 0.03 0.02 0.01 0.00 0.00 0.00 0.00 0.00 0.00 0.00 0.00 0.00 0.00 0.00 0.00 0.00 0.00 0.00 0.00 0.00 0.00 0.00 0.00 0.00 0.00 0.00 0.00 0.00 0.00 0.00 0.00 0.00 0.00 0.00 0.00 0.00 0.00 0.00 0.00 0.00 0.00 0.00 0.00 0.00 0.00 0.00 0.00 0.01 0.00 0.00 0.00 0.01 0.01 0.02 0.13 0.17 0.24 0.28 0.36 0.60 0.74 0.99 1.22 1.17 1.73
0.10 0.09 0.08 0.09 0.08 0.09 0.10 0.10 0.08 0.12 0.08 0.07 0.07 0.05 0.05 0.06 0.05 0.04 0.07 0.06 0.05 0.05 0.02 0.03 0.02 0.01 0.00 0.00 0.00 0.00 0.00 0.00 0.00 0.00 0.00 0.00 0.00 0.00 0.00 0.00 0.00 0.00 0.00 0.00 0.00 0.00 0.00 0.00 0.00 0.00 0.00 0.00 0.00 0.00 0.00 0.00 0.00 0.00 0.00 0.00 0.00 0.00 0.00 0.00 0.00 0.00 0.00 0.00 0.01 0.00 0.00 0.00 0.00 0.01 0.02 0.02 0.05 0.06 0.23 0.39 0.36 0.72 1.04 0.95 1.33 1.01 1.13 1.32
0.11 0.07 0.08 0.08 0.11 0.12 0.07 0.08 0.09 0.06 0.09 0.07 0.07 0.07 0.05 0.06 0.06 0.05 0.04 0.06 0.07 0.03 0.03 0.03 0.01 0.00 0.00 0.00 0.00 0.00 0.00 0.00 0.00 0.00 0.00 0.00 0.00 0.00 0.00 0.00 0.00 0.00 0.00 0.00 0.00 0.00 0.00 0.00 0.00 0.00 0.00 0.00 0.00 0.00 0.00 0.00 0.00 0.00 0.00 0.00 0.00 0.00 0.00 0.00 0.00 0.00 0.00 0.00 0.00 0.00 0.00 0.00 0.00 0.00 0.00 0.03 0.07 0.08 0.23 0.25 0.68 0.67 1.54 1.42 0.97 1.34 2.11 2.61
0.09 0.09 0.09 0.09 0.09 0.06 0.05 0.06 0.06 0.07 0.06 0.06 0.06 0.04 0.07 0.07 0.07 0.05 0.06 0.07 0.05 0.05 0.03 0.02 0.01 0.00 0.01 0.02 0.00 0.01 0.00 0.00 0.00 0.00 0.00 0.00 0.00 0.00 0.00 0.00 0.00 0.00 0.00 0.00 0.00 0.00 0.00 0.00 0.00 0.00 0.00 0.00 0.00 0.00 0.00 0.00 0.00 0.00 0.00 0.00 0.00 0.00 0.00 0.00 0.00 0.00 0.00 0.00 0.00 0.00 0.00 0.00 0.00 0.00 0.02 0.10 0.14 0.09 0.18 0.34 0.22 0.75 1.24 1.16 0.87 1.17 1.73 1.65
0.10 0.09 0.08 0.08 0.06 0.05 0.05 0.08 0.06 0.07 0.06 0.08 0.06 0.06 0.08 0.09 0.06 0.10 0.05 0.04 0.05 0.06 0.03 0.03 0.01 0.01 0.01 0.02 0.01 0.00 0.00 0.00 0.00 0.00 0.00 0.00 0.00 0.00 0.00 0.00 0.00 0.00 0.00 0.00 0.00 0.00 0.00 0.00 0.00 0.00 0.00 0.00 0.00 0.00 0.00 0.00 0.00 0.00 0.00 0.00 0.00 0.00 0.00 0.00 0.01 0.00 0.00 0.00 0.00 0.00 0.00 0.01 0.00 0.00 0.24 0.29 0.10 0.10 0.21 0.36 0.62 0.77 1.22 1.22 0.91 1.15 2.17 1.20
0.09 0.11 0.06 0.07 0.06 0.07 0.06 0.07 0.06 0.06 0.17 0.06 0.08 0.09 0.06 0.06 0.07 0.05 0.06 0.04 0.06 0.05 0.04 0.03 0.04 0.01 0.05 0.01 0.01 0.00 0.00 0.00 0.00 0.00 0.00 0.00 0.00 0.00 0.00 0.00 0.00 0.00 0.00 0.00 0.00 0.00 0.00 0.00 0.00 0.00 0.00 0.00 0.00 0.00 0.00 0.00 0.00 0.00 0.00 0.00 0.00 0.00 0.00 0.00 0.01 0.01 0.00 0.00 0.00 0.00 0.00 0.00 0.00 0.00 0.06 0.13 0.37 0.20 0.21 0.66 0.84 0.95 1.06 1.51 0.80 1.39 1.50 1.73
0.12 0.11 0.09 0.05 0.11 0.13 0.05 0.10 0.08 0.12 0.06 0.10 0.07 0.05 0.06 0.04 0.05 0.04 0.03 0.05 0.04 0.04 0.02 0.04 0.04 0.09 0.02 0.04 0.04 0.00 0.00 0.00 0.00 0.00 0.00 0.00 0.00 0.00 0.00 0.00 0.00 0.00 0.00 0.00 0.00 0.00 0.00 0.00 0.00 0.00 0.00 0.00 0.00 0.00 0.00 0.00 0.00 0.00 0.00 0.00 0.02 0.00 0.00 0.01 0.03 0.01 0.00 0.00 0.00 0.00 0.00 0.00 0.00 0.02 0.12 0.26 0.33 0.57 0.60 0.66 0.93 1.13 1.63 1.25 1.57 1.83 1.95 2.49
0.08 0.07 0.09 0.17 0.11 0.11 0.09 0.08 0.08 0.10 0.07 0.09 0.10 0.06 0.05 0.04 0.03 0.05 0.04 0.08 0.07 0.04 0.03 0.05 0.02 0.07 0.10 0.08 0.00 0.00 0.00 0.00 0.00 0.00 0.00 0.00 0.00 0.00 0.00 0.00 0.00 0.00 0.00 0.00 0.00 0.00 0.00 0.00 0.00 0.00 0.00 0.00 0.00 0.00 0.00 0.00 0.00 0.00 0.00 0.01 0.00 0.02 0.07 0.00 0.00 0.00 0.00 0.00 0.00 0.00 0.01 0.12 0.02 0.04 0.08 0.07 0.32 0.30 0.65 1.09 1.43 1.91 1.73 2.70 2.40 1.42 1.57 1.75
0.08 0.08 0.09 0.09 0.09 0.06 0.09 0.08 0.07 0.10 0.09 0.05 0.10 0.06 0.04 0.05 0.04 0.09 0.09 0.05 0.06 0.07 0.07 0.05 0.08 0.08 0.28 0.02 0.00 0.00 0.00 0.00 0.00 0.00 0.00 0.00 0.00 0.00 0.00 0.00 0.00 0.00 0.00 0.00 0.00 0.00 0.00 0.00 0.00 0.00 0.00 0.00 0.00 0.00 0.00 0.00 0.00 0.00 0.00 0.00 0.00 0.00 0.01 0.00 0.00 0.00 0.00 0.00 0.00 0.00 0.01 0.09 0.15 0.27 0.11 0.17 0.28 0.82 1.42 1.59 2.02 2.42 1.42 1.60 1.80 1.58 1.45 2.11
0.08 0.14 0.17 0.19 0.13 0.13 0.12 0.10 0.08 0.06 0.11 0.11 0.07 0.04 0.04 0.14 0.06 0.04 0.16 0.19 0.09 0.04 0.05 0.07 0.06 0.09 0.16 0.00 0.00 0.00 0.00 0.00 0.00 0.00 0.00 0.00 0.00 0.00 0.00 0.00 0.00 0.00 0.00 0.00 0.00 0.00 0.00 0.00 0.00 0.00 0.00 0.00 0.00 0.00 0.00 0.00 0.00 0.00 0.06 0.05 0.02 0.01 0.02 0.01 0.00 0.00 0.00 0.00 0.00 0.00 0.02 0.10 0.07 0.13 0.16 0.37 0.84 1.32 0.91 1.08 1.42 1.64 1.35 1.20 1.50 1.26 1.25 0.99
0.13 0.13 0.13 0.10 0.09 0.20 0.08 0.08 0.13 0.06 0.13 0.11 0.11 0.06 0.05 0.04 0.05 0.05 0.06 0.15 0.06 0.14 0.07 0.09 0.09 0.06 0.02 0.02 0.00 0.00 0.00 0.00 0.00 0.00 0.00 0.00 0.00 0.00 0.00 0.00 0.00 0.00 0.00 0.00 0.00 0.00 0.00 0.00 0.00 0.00 0.00 0.00 0.00 0.00 0.00 0.00 0.00 0.00 0.01 0.01 0.03 0.01 0.02 0.01 0.01 0.00 0.00 0.00 0.00 0.00 0.04 0.06 0.08 0.30 0.28 0.91 1.44 0.87 0.56 1.33 0.94 1.61 1.50 1.66 1.28 2.34 1.26 1.31
0.17 0.11 0.15 0.09 0.09 0.06 0.07 0.19 0.11 0.12 0.09 0.07 0.06 0.06 0.05 0.06 0.06 0.12 0.07 0.16 0.11 0.07 0.14 0.07 0.03 0.05 0.14 0.00 0.00 0.00 0.00 0.00 0.00 0.00 0.00 0.00 0.00 0.00 0.00 0.00 0.00 0.00 0.00 0.00 0.00 0.00 0.00 0.00 0.00 0.00 0.00 0.00 0.00 0.00 0.01 0.01 0.01 0.00 0.00 0.01 0.03 0.03 0.01 0.02 0.03 0.00 0.00 0.00 0.00 0.00 0.00 0.08 0.04 0.01 0.31 1.47 1.12 0.93 0.55 0.66 1.32 0.81 0.46 0.32 0.73 0.53 0.74 0.51
0.28 0.11 0.16 0.20 0.06 0.07 0.07 0.09 0.08 0.13 0.12 0.11 0.09 0.07 0.08 0.11 0.07 0.12 0.11 0.15 0.16 0.09 0.10 0.04 0.03 0.12 0.01 0.00 0.00 0.00 0.00 0.00 0.00 0.00 0.00 0.00 0.00 0.00 0.00 0.00 0.00 0.00 0.00 0.00 0.00 0.00 0.00 0.00 0.00 0.00 0.00 0.00 0.00 0.02 0.01 0.09 0.06 0.05 0.01 0.01 0.01 0.02 0.03 0.03 0.00 0.02 0.00 0.00 0.00 0.00 0.00 0.01 0.09 0.01 0.03 0.04 0.65 0.64 0.89 0.94 1.61 1.40 0.49 0.44 0.56 0.50 0.40 0.55
0.12 0.16 0.10 0.23 0.19 0.13 0.10 0.20 0.11 0.07 0.09 0.09 0.12 0.09 0.07 0.10 0.17 0.19 0.17 0.17 0.21 0.40 0.19 0.19 0.13 0.04 0.08 0.00 0.00 0.00 0.00 0.00 0.00 0.00 0.00 0.00 0.00 0.00 0.00 0.00 0.00 0.00 0.00 0.00 0.00 0.00 0.00 0.00 0.00 0.00 0.01 0.02 0.03 0.00 0.01 0.00 0.00 0.00 0.00 0.00 0.00 0.02 0.05 0.02 0.01 0.00 0.00 0.00 0.00 0.00 0.01 0.02 0.01 0.02 0.05 0.38 0.48 0.51 1.21 1.41 1.33 1.23 1.69 1.16 0.89 0.56 0.57 0.53
0.15 0.17 0.15 0.15 0.19 0.13 0.13 0.12 0.11 0.19 0.31 0.10 0.13 0.13 0.16 0.15 0.31 0.20 0.22 0.29 0.17 0.04 0.00 0.01 0.00 0.00 0.00 0.00 0.00 0.00 0.00 0.00 0.00 0.00 0.00 0.00 0.00 0.00 0.00 0.00 0.00 0.00 0.00 0.01 0.00 0.00 0.00 0.01 0.01 0.03 0.02 0.01 0.02 0.00 0.00 0.00 0.00 0.00 0.00 0.00 0.01 0.00 0.01 0.00 0.00 0.04 0.00 0.00 0.00 0.00 0.01 0.01 0.01 0.02 0.01 0.07 0.11 1.05 1.40 2.10 2.46 2.50 1.31 0.57 0.99 0.42 0.75 0.72
0.19 0.16 0.17 0.13 0.20 0.21 0.18 0.13 0.09 0.09 0.25 0.30 0.16 0.24 0.22 0.13 0.10 0.15 0.09 0.12 0.07 0.02 0.00 0.02 0.01 0.00 0.00 0.00 0.00 0.00 0.00 0.00 0.00 0.00 0.00 0.00 0.00 0.00 0.00 0.00 0.00 0.00 0.01 0.00 0.00 0.01 0.00 0.01 0.03 0.02 0.00 0.00 0.00 0.00 0.00 0.00 0.00 0.00 0.00 0.00 0.00 0.00 0.02 0.01 0.02 0.00 0.00 0.00 0.00 0.00 0.02 0.01 0.03 0.03 0.04 0.06 0.08 0.39 0.40 0.54 0.32 0.81 1.02 0.96 0.83 0.67 0.38 0.99
0.15 0.17 0.20 0.19 0.19 0.24 0.13 0.12 0.16 0.15 0.18 0.28 0.31 0.35 0.12 0.11 0.10 0.07 0.15 0.12 0.02 0.01 0.01 0.00 0.00 0.01 0.00 0.00 0.00 0.00 0.00 0.00 0.00 0.00 0.00 0.00 0.00 0.00 0.00 0.00 0.00 0.03 0.00 0.00 0.00 0.04 0.02 0.11 0.01 0.00 0.00 0.00 0.00 0.00 0.00 0.00 0.00 0.00 0.01 0.00 0.00 0.04 0.02 0.00 0.00 0.00 0.00 0.00 0.00 0.01 0.01 0.04 0.06 0.04 0.06 0.04 0.04 0.09 0.07 0.06 0.11 0.22 0.40 0.50 0.43 0.49 1.09 1.22
0.27 0.16 0.18 0.22 0.28 0.33 0.29 0.12 0.14 0.36 0.28 0.39 0.56 0.13 0.23 0.20 0.12 0.21 0.09 0.18 0.03 0.01 0.02 0.00 0.00 0.00 0.00 0.00 0.00 0.00 0.00 0.00 0.00 0.00 0.00 0.00 0.00 0.00 0.00 0.00 0.00 0.00 0.00 0.00 0.02 0.01 0.16 0.01 0.01 0.00 0.00 0.00 0.00 0.00 0.00 0.00 0.00 0.00 0.01 0.01 0.06 0.07 0.02 0.12 0.09 0.00 0.03 0.00 0.00 0.00 0.05 0.03 0.06 0.05 0.06 0.14 0.10 0.11 0.11 0.13 0.24 0.39 0.57 0.29 0.52 0.52 0.68 0.65
0.16 0.25 0.23 0.28 0.34 0.38 0.22 0.14 0.18 0.30 0.57 0.27 0.40 0.27 0.27 0.31 0.12 0.11 0.36 0.24 0.04 0.00 0.00 0.00 0.00 0.00 0.00 0.00 0.00 0.00 0.00 0.00 0.00 0.00 0.00 0.00 0.00 0.00 0.00 0.00 0.00 0.00 0.02 0.01 0.01 0.06 0.04 0.00 0.00 0.00 0.00 0.00 0.00 0.00 0.00 0.00 0.02 0.02 0.01 0.01 0.02 0.03 0.09 0.00 0.09 0.02 0.00 0.01 0.00 0.01 0.04 0.12 0.08 0.15 0.16 0.17 0.40 0.77 1.06 0.90 0.47 0.37 0.41 1.06 1.27 1.22 0.65 0.72
0.28 0.32 0.38 0.21 0.49 0.36 0.30 0.29 0.20 0.25 0.28 0.66 0.40 0.64 0.29 0.22 0.12 0.21 0.36 0.23 0.09 0.01 0.00 0.00 0.00 0.00 0.00 0.00 0.00 0.00 0.00 0.00 0.00 0.01 0.11 0.00 0.00 0.00 0.00 0.00 0.01 0.03 0.01 0.01 0.00 0.02 0.07 0.01 0.00 0.00 0.00 0.00 0.00 0.02 0.03 0.00 0.02 0.06 0.10 0.03 0.00 0.01 0.00 0.01 0.00 0.01 0.03 0.14 0.03 0.01 0.14 0.29 0.33 0.15 0.14 0.17 0.30 1.06 1.77 1.27 0.36 0.74 0.92 1.20 1.52 1.08 1.78 1.72
0.25 0.29 0.26 0.25 0.41 0.34 0.47 0.30 0.43 0.40 0.43 0.69 0.63 0.75 0.32 0.17 0.47 0.32 0.17 0.42 0.20 0.02 0.04 0.01 0.00 0.01 0.00 0.00 0.00 0.00 0.00 0.01 0.00 0.02 0.01 0.00 0.01 0.00 0.01 0.02 0.01 0.05 0.01 0.01 0.03 0.03 0.01 0.00 0.00 0.00 0.00 0.00 0.00 0.03 0.00 0.00 0.06 0.02 0.15 0.00 0.01 0.01 0.00 0.01 0.00 0.01 0.04 0.25 0.34 0.01 0.13 0.54 0.28 0.44 0.43 0.38 0.29 0.33 0.44 0.70 0.31 0.23 0.77 0.99 0.97 0.83 1.10 1.10
0.44 0.40 0.26 0.32 0.33 0.43 0.34 0.42 0.25 0.77 0.46 0.67 0.42 0.47 0.24 0.33 0.35 0.25 0.40 0.28 0.27 0.06 0.03 0.03 0.00 0.02 0.00 0.02 0.00 0.00 0.08 0.14 0.00 0.01 0.00 0.00 0.01 0.00 0.05 0.04 0.02 0.01 0.02 0.12 0.01 0.03 0.00 0.00 0.00 0.00 0.01 0.01 0.01 0.09 0.00 0.00 0.01 0.23 0.02 0.01 0.00 0.00 0.01 0.03 0.01 0.02 0.09 0.01 0.04 0.00 0.05 0.29 0.37 0.50 0.42 0.38 0.23 0.47 0.44 0.29 0.65 1.01 0.73 1.37 1.24 0.91 0.87 0.56
0.31 0.26 0.23 0.20 0.34 0.39 0.58 0.58 0.60 0.65 0.53 0.49 0.73 0.40 0.53 0.20 0.31 0.47 0.26 0.34 0.12 0.02 0.15 0.12 0.00 0.03 0.03 0.01 0.00 0.01 0.03 0.01 0.15 0.31 0.03 0.12 0.00 0.02 0.00 0.03 0.04 0.04 0.12 0.02 0.16 0.06 0.00 0.01 0.02 0.03 0.01 0.05 0.03 0.00 0.02 0.01 0.01 0.09 0.00 0.00 0.00 0.00 0.02 0.01 0.03 0.06 0.06 0.05 0.49 0.09 0.15 0.11 0.25 0.35 0.77 0.79 0.52 0.92 0.70 0.45 0.67 0.49 0.51 1.19 0.83 0.66 0.74 0.59
0.28 0.18 0.20 0.33 0.23 0.40 0.35 0.60 0.61 0.87 0.48 0.48 0.29 0.45 0.33 0.62 0.53 0.44 0.51 0.23 0.26 0.05 0.00 0.19 0.01 0.01 0.02 0.01 0.00 0.01 0.01 0.01 0.11 0.29 0.03 0.11 0.01 0.15 0.02 0.02 0.02 0.05 0.03 0.02 0.19 0.01 0.02 0.00 0.00 0.00 0.01 0.05 0.01 0.01 0.01 0.01 0.05 0.03 0.00 0.00 0.01 0.00 0.00 0.02 0.05 0.09 0.19 0.06 0.19 0.16 0.16 0.10 0.31 0.40 0.59 1.29 0.66 0.72 0.94 0.90 0.29 0.26 0.26 0.42 0.49 0.58 0.50 0.69
0.19 0.16 0.17 0.18 0.16 0.26 0.61 0.90 0.51 0.31 0.28 0.43 0.45 0.48 0.42 0.65 0.97 0.43 0.50 0.20 0.22 0.49 0.02 0.06 0.02 0.08 0.01 0.14 0.03 0.09 0.05 0.08 0.05 0.12 0.13 0.11 0.04 0.08 0.00 0.04 0.09 0.19 0.08 0.02 0.01 0.03 0.08 0.00 0.00 0.01 0.02 0.00 0.00 0.00 0.00 0.01 0.00 0.00 0.00 0.01 0.01 0.02 0.03 0.04 0.03 0.15 0.18 0.07 0.28 0.13 0.09 0.08 0.48 0.32 0.29 0.66 0.37 0.19 0.23 0.40 0.34 0.36 1.07 0.81 0.77 0.66 0.44 0.51
0.08 0.15 0.09 0.09 0.55 0.61 0.36 0.41 0.50 0.20 0.32 0.20 0.29 0.42 0.79 0.75 0.73 0.29 0.26 0.32 0.14 0.41 0.05 0.03 0.11 0.03 0.23 0.23 0.22 0.14 0.08 0.05 0.12 0.06 0.27 0.31 0.19 0.06 0.18 0.15 0.13 0.12 0.16 0.17 0.13 0.08 0.05 0.06 0.04 0.01 0.01 0.01 0.00 0.02 0.01 0.00 0.00 0.01 0.03 0.04 0.02 0.07 0.06 0.03 0.13 0.08 0.28 0.28 0.21 0.09 0.10 0.06 0.20 0.35 0.22 0.15 0.15 0.13 0.11 0.23 0.24 0.33 0.30 0.50 0.78 0.34 0.36 0.54
0.34 0.11 0.15 0.21 0.31 0.42 0.24 0.47 0.27 0.29 0.49 0.19 0.32 0.53 0.75 0.85 0.42 0.61 0.29 0.60 0.59 0.72 0.48 0.26 0.15 0.19 0.18 0.33 0.20 0.11 0.13 0.15 0.16 0.08 0.19 0.21 0.14 0.19 0.24 0.18 0.22 0.28 0.25 0.21 0.36 0.04 0.08 0.10 0.03 0.01 0.01 0.01 0.04 0.02 0.11 0.01 0.02 0.04 0.04 0.04 0.32 0.60 0.24 0.44 0.25 0.34 0.16 0.18 0.23 0.09 0.08 0.14 0.07 0.32 0.24 0.24 0.24 0.16 0.08 0.12 0.23 0.29 0.41 0.46 0.65 0.40 0.54 0.54
0.06 0.05 0.06 0.17 0.08 0.14 0.25 0.18 0.16 0.24 0.42 0.29 0.46 1.28 0.91 0.79 0.40 0.29 0.45 0.35 1.51 0.73 0.80 0.35 0.62 0.25 0.20 0.13 0.10 0.06 0.04 0.22 0.11 0.12 0.14 0.28 0.21 0.19 0.20 0.18 0.10 0.12 0.58 0.16 0.34 0.20 0.17 0.05 0.00 0.04 0.02 0.03 0.01 0.06 0.06 0.13 0.03 0.05 0.04 0.17 0.17 0.50 0.29 0.10 0.31 0.15 0.25 0.13 0.06 0.09 0.07 0.17 0.30 0.47 0.12 0.30 0.22 0.14 0.18 0.15 0.51 0.84 0.67 0.32 0.56 0.56 0.84 1.51
0.02 0.02 0.15 0.03 0.03 0.05 0.11 0.18 0.34 0.26 0.32 0.27 0.46 0.95 1.65 0.60 0.22 0.27 0.44 0.60 1.30 0.55 0.46 0.65 0.35 0.46 0.11 0.19 0.23 0.17 0.23 0.11 0.08 0.13 0.09 0.22 0.22 0.22 0.23 0.19 0.04 0.18 0.22 0.22 0.49 0.33 0.40 0.32 0.08 0.07 0.29 0.02 0.02 0.00 0.02 0.12 0.04 0.02 0.01 0.04 0.54 0.36 0.38 0.26 0.19 0.26 0.19 0.42 0.23 0.14 0.07 0.12 0.19 1.99 0.33 0.23 0.12 0.08 0.10 0.18 0.23 0.27 0.54 0.88 0.65 0.70 1.16 2.95
0.02 0.02 0.03 0.06 0.04 0.01 0.09 0.08 0.22 0.16 0.40 0.32 0.68 0.99 0.63 0.25 0.33 0.48 0.91 0.69 0.63 0.72 0.58 0.45 0.40 0.38 0.35 0.21 0.22 0.14 0.06 0.51 0.05 0.11 0.12 0.22 0.30 0.21 0.20 0.18 0.04 0.05 0.18 0.32 0.17 0.17 0.15 0.33 0.21 0.01 0.04 0.02 0.03 0.01 0.00 0.00 0.04 0.02 0.04 0.05 0.12 0.26 0.12 0.45 0.58 0.22 0.41 0.38 0.14 0.13 0.16 0.57 1.02 1.28 0.50 0.18 0.10 0.09 0.12 0.27 0.31 0.44 0.44 0.54 1.41 2.02 2.31 2.07
0.02 0.05 0.04 0.10 0.09 0.05 0.08 0.07 0.39 0.22 0.38 0.56 0.81 0.67 0.59 0.34 0.74 0.94 0.95 0.62 0.70 0.84 0.51 0.45 0.46 0.27 0.20 0.28 0.15 0.11 0.12 0.23 0.27 0.10 0.18 0.12 0.23 0.26 0.18 0.11 0.17 0.03 0.17 0.28 0.13 0.33 0.14 0.47 0.02 0.06 0.01 0.03 0.00 0.00 0.00 0.00 0.36 0.20 0.03 0.12 0.09 0.06 0.09 0.14 0.12 0.11 0.10 0.15 0.16 0.03 0.20 0.43 0.45 1.07 0.56 0.41 0.28 0.23 0.11 0.24 0.14 0.46 0.79 0.93 1.70 1.69 1.47 1.36
0.11 0.05 0.14 0.06 0.07 0.07 0.24 0.19 0.21 0.33 0.39 0.46 0.89 0.53 0.29 0.40 0.39 0.49 0.65 0.80 1.03 0.75 1.06 0.97 0.40 0.37 0.23 0.28 0.31 0.19 0.23 0.05 0.39 0.10 0.33 0.08 0.38 0.19 0.14 0.09 0.02 0.07 0.03 0.06 0.35 0.12 0.35 0.77 0.04 0.02 0.09 0.02 0.01 0.00 0.00 0.00 0.01 0.11 0.17 0.11 0.12 0.14 0.22 0.24 0.58 0.37 0.16 0.36 0.15 0.06 0.17 0.50 0.17 0.98 0.84 0.57 0.66 0.36 0.33 0.32 0.25 0.36 0.69 0.98 1.36 0.90 0.69 1.38
0.14 0.09 0.28 0.11 0.05 0.11 0.22 0.31 0.45 0.49 0.52 0.66 0.64 0.43 0.37 0.51 0.51 0.54 0.51 0.62 0.88 1.02 1.19 1.00 0.69 0.30 0.54 0.35 0.31 0.09 0.29 0.16 0.50 0.21 0.28 0.31 0.68 0.08 0.11 0.14 0.02 0.05 0.06 0.09 0.19 0.45 0.14 0.47 0.17 0.01 0.01 0.03 0.00 0.02 0.06 0.00 0.00 0.12 0.18 0.10 0.17 0.48 0.42 0.19 0.23 0.45 0.37 0.32 0.34 0.20 0.17 0.16 0.25 0.95 0.56 0.63 0.38 0.49 0.46 0.27 0.23 0.36 0.72 1.07 1.25 1.15 0.90 1.14
0.33 0.43 0.56 0.07 0.20 0.13 0.26 0.49 0.48 0.61 0.81 0.74 0.49 0.54 0.44 0.51 0.43 0.54 0.61 0.61 0.61 0.78 1.07 0.68 1.00 0.64 0.52 0.35 0.23 0.14 0.17 0.48 0.24 0.43 0.27 0.42 0.50 0.19 0.17 0.05 0.16 0.03 0.04 0.11 0.21 0.22 0.18 0.41 0.33 0.05 0.04 0.15 0.04 0.06 0.44 0.14 0.01 0.04 0.01 0.08 0.17 0.17 0.37 0.55 0.45 0.68 0.62 0.61 0.34 0.43 0.25 0.48 0.33 0.59 0.26 0.39 0.29 0.41 0.42 0.45 0.39 0.52 0.46 0.51 0.46 0.48 0.54 0.64
0.72 0.58 0.99 0.13 0.15 0.23 0.53 0.42 0.65 0.85 0.95 0.61 0.34 0.52 0.30 0.48 0.34 0.34 0.55 0.64 1.21 0.84 1.02 0.92 0.58 0.87 0.43 0.52 0.22 0.33 0.25 0.20 0.39 0.68 0.20 0.68 0.32 0.08 0.08 0.02 0.17 0.12 0.13 0.13 0.24 0.19 0.49 0.26 0.66 0.15 0.07 0.05 0.43 0.04 0.19 0.13 0.29 0.17 0.11 0.10 0.26 0.24 0.32 0.20 0.63 0.32 0.50 0.53 0.51 0.43 0.45 0.70 0.71 0.28 0.33 0.30 0.58 0.48 0.35 0.33 0.44 0.56 0.98 0.75 1.19 1.15 0.89 0.47
0.39 1.00 1.01 0.34 0.24 0.40 0.66 0.84 0.92 0.93 0.68 0.34 0.38 0.44 0.32 0.52 0.57 0.60 0.41 0.56 0.90 0.53 0.62 0.73 0.74 0.66 0.35 0.39 0.38 0.26 0.23 0.37 0.37 0.46 0.18 0.30 0.27 0.60 0.17 0.11 0.11 0.42 0.36 0.45 0.33 0.46 0.51 0.44 0.51 0.38 0.25 0.22 0.23 0.04 0.10 0.14 0.25 0.39 0.26 0.36 0.40 0.58 0.77 0.80 0.68 0.17 0.26 0.41 0.46 0.37 0.46 0.66 0.67 0.21 0.63 0.66 0.40 0.86 0.66 0.70 0.72 0.82 0.68 0.91 1.01 0.74 0.72 1.05
0.61 1.04 1.39 0.43 0.37 0.49 0.82 1.16 0.83 0.77 0.78 0.61 0.56 0.49 0.59 0.47 0.65 0.50 0.49 0.55 0.35 0.58 0.37 0.44 0.26 0.32 0.27 0.33 0.26 0.17 0.45 0.25 0.21 0.33 0.28 0.34 0.41 0.18 0.31 0.14 0.24 0.29 0.53 0.77 0.56 0.33 0.36 0.78 0.55 0.48 0.24 0.77 0.19 0.09 0.08 0.16 0.18 0.27 0.11 0.51 0.52 0.33 0.28 0.63 0.62 0.55 0.22 0.29 0.17 0.56 0.40 0.86 0.69 0.32 1.28 1.20 0.59 0.55 0.67 0.60 0.57 0.72 0.78 0.82 0.90 1.00 0.53 0.65
0.85 1.99 1.28 0.49 0.32 0.53 1.05 0.98 0.67 0.84 0.74 0.59 0.40 0.37 0.40 0.59 0.54 0.46 0.40 0.53 0.50 0.33 0.53 0.51 0.41 0.37 0.29 0.54 0.20 0.28 0.25 0.41 0.17 0.56 0.19 0.30 0.27 0.25 0.11 0.49 0.27 0.44 0.54 1.10 0.37 0.67 0.55 0.57 0.65 0.39 0.15 0.16 0.20 0.16 0.11 0.23 0.60 0.26 0.11 0.27 0.37 0.45 0.36 0.40 0.58 0.64 0.57 0.54 0.40 0.50 0.29 0.98 0.44 0.56 0.82 0.94 1.11 1.75 1.24 0.71 0.62 0.51 0.35 0.80 1.19 0.94 0.79 0.33
0.95 2.21 1.35 0.55 0.35 0.76 1.59 1.18 1.12 0.89 0.94 0.71 0.65 0.59 0.45 0.77 0.66 0.53 0.40 0.45 0.58 0.56 0.83 0.35 0.43 0.55 0.46 0.17 0.19 0.19 0.32 0.52 0.20 0.10 0.23 0.18 0.26 0.06 0.27 0.52 0.36 0.64 0.66 1.09 0.81 1.18 0.89 0.77 0.52 1.03 0.69 1.03 0.54 0.44 0.60 0.32 0.24 0.31 0.31 0.28 0.32 0.27 0.19 0.30 0.41 0.39 0.48 0.32 0.47 0.72 0.83 1.16 0.81 0.48 0.75 0.61 1.08 1.77 1.52 1.26 1.15 1.10 1.33 1.53 1.17 0.74 0.62 0.96
1.49 1.26 0.81 0.91 0.42 0.96 1.78 1.64 1.48 1.12 0.90 0.87 0.82 0.80 0.82 0.77 0.85 0.67 0.50 0.46 0.32 0.45 0.44 0.52 0.29 0.24 0.21 0.10 0.23 0.21 0.32 0.50 0.43 0.36 0.13 0.19 0.50 0.03 0.24 0.28 0.33 0.62 0.40 0.46 0.69 0.94 0.77 1.08 0.76 1.23 1.41 1.45 1.35 1.33 1.27 1.00 0.53 0.30 0.19 0.29 0.22 0.18 0.45 0.56 0.55 0.39 0.53 0.39 0.44 0.65 0.75 0.79 0.74 0.43 0.51 0.41 0.51 0.70 0.91 1.25 0.84 0.63 0.78 0.89 0.74 0.81 0.67 0.88
1.56 0.91 0.57 0.60 1.08 1.53 1.21 1.14 1.44 1.44 1.12 0.88 0.81 0.97 1.19 1.26 0.85 0.77 0.36 0.30 0.32 0.28 0.65 0.32 0.20 0.16 0.16 0.29 0.09 0.21 0.34 0.21 0.37 0.41 0.27 0.29 0.33 0.14 0.18 0.26 0.36 0.38 0.26 0.37 0.96 0.92 0.94 0.76 0.94 0.86 1.01 1.38 1.04 0.76 0.98 0.72 0.64 0.49 0.53 0.37 0.25 0.19 0.18 0.48 0.59 0.83 0.64 0.48 0.47 0.54 0.69 0.88 0.84 0.77 0.52 0.54 0.61 0.94 0.67 0.59 0.52 0.73 0.63 0.56 0.56 0.62 0.64 0.90
1.23 1.06 0.33 0.44 0.45 0.78 1.21 1.08 1.34 1.50 1.60 1.31 1.42 0.73 0.98 0.87 0.55 0.74 0.40 0.65 0.30 0.63 0.50 0.43 0.24 0.26 0.28 0.58 0.20 0.30 0.28 0.56 0.36 0.15 0.29 0.44 0.21 0.13 0.39 0.31 0.62 0.36 0.48 0.57 0.85 1.18 1.11 0.79 0.65 0.84 0.68 0.76 0.61 0.72 0.58 0.60 0.74 0.54 0.44 0.35 0.23 0.25 0.34 0.54 0.46 0.73 0.63 0.83 0.66 0.74 0.74 0.64 0.81 0.63 0.56 0.60 0.66 0.73 0.67 0.72 0.51 0.52 0.43 0.47 0.43 0.40 0.38 0.36
1.31 0.68 0.33 0.43 1.01 0.63 1.03 1.46 1.19 1.66 1.41 1.75 1.19 0.77 0.73 0.75 0.53 0.81 0.47 0.42 0.61 0.23 0.72 0.62 0.69 0.57 0.33 0.54 0.27 0.23 0.23 0.38 0.29 0.20 0.45 0.22 0.06 0.17 0.35 0.32 0.54 0.50 0.48 0.51 0.45 0.85 1.21 0.92 0.58 0.90 1.24 0.54 0.54 0.34 0.41 0.66 0.50 0.60 0.59 0.50 0.58 0.49 0.42 0.41 0.45 0.37 0.57 0.65 1.16 0.77 0.83 0.66 0.68 0.63 0.60 0.63 0.63 0.78 0.57 0.57 0.60 0.45 0.43 0.41 0.43 0.40 0.39 0.39
1.29 0.43 0.64 0.21 0.56 0.54 0.97 0.96 1.28 1.40 1.69 1.57 1.34 0.79 0.69 0.53 0.48 0.55 0.57 0.51 0.38 0.54 0.28 0.43 1.07 0.86 0.73 0.27 0.41 0.46 0.50 0.78 0.33 0.20 0.42 0.57 0.52 0.46 0.54 0.45 0.54 0.55 0.74 0.65 0.76 0.75 0.89 0.82 0.87 0.85 1.02 1.19 0.82 0.36 0.32 0.55 0.70 0.36 0.33 0.38 0.36 0.49 0.59 0.51 0.33 0.24 0.37 0.44 0.43 0.47 0.41 0.50 0.68 0.66 0.51 0.71 0.61 0.58 0.51 0.35 0.37 0.41 0.32 0.23 0.40 0.29 0.31 0.26
1.28 1.35 0.51 0.15 0.35 0.15 0.29 0.59 0.87 1.27 1.72 1.41 1.31 0.81 0.68 0.46 0.50 0.26 0.27 0.53 0.61 0.44 0.29 0.59 0.91 0.87 0.44 0.44 0.33 0.44 0.73 0.62 0.30 0.32 0.41 0.51 0.54 0.67 1.20 0.92 1.50 0.82 0.65 0.72 0.68 0.80 0.71 0.82 0.65 1.17 1.55 0.97 0.76 0.40 0.43 0.61 0.57 0.62 0.34 0.34 0.32 0.32 0.35 0.45 0.47 0.51 0.43 0.50 0.42 0.53 0.35 0.56 0.68 0.51 0.93 1.00 0.66 1.28 1.03 0.70 0.61 0.64 0.61 0.46 0.45 0.40 0.25 0.22
0.99 0.83 0.77 0.85 0.51 0.30 0.35 0.47 0.63 0.93 1.56 1.53 1.47 0.92 0.87 0.36 0.48 0.37 0.30 0.25 0.36 0.46 0.36 0.73 1.06 0.53 0.64 0.87 1.12 0.71 0.52 0.38 0.25 0.40 0.45 0.45 0.57 0.62 0.80 1.10 0.66 1.72 1.47 1.21 0.97 1.89 0.88 1.25 0.61 1.19 1.47 1.17 0.62 0.45 0.45 0.67 0.55 0.51 0.52 0.50 0.40 0.39 0.54 0.57 0.68 0.62 0.73 1.11 0.89 1.03 0.61 0.66 1.09 0.65 0.59 1.12 0.68 0.42 0.61 0.54 0.37 0.40 0.84 0.76 0.61 0.49 0.62 0.58
0.93 0.48 0.54 0.81 0.82 0.24 0.47 0.33 0.50 0.76 0.98 1.30 1.58 1.26 1.19 0.88 0.81 0.42 0.91 0.47 0.48 0.27 0.51 0.84 1.71 1.31 1.38 1.75 1.01 0.28 0.47 0.24 0.25 0.22 0.28 0.15 0.29 0.21 0.83 0.81 0.61 0.78 1.14 0.91 1.18 1.24 1.01 0.64 0.75 1.22 1.63 1.25 1.22 0.64 0.69 0.59 0.67 1.14 0.96 0.62 0.53 0.60 0.45 0.43 0.43 0.46 0.64 0.87 1.25 1.41 1.04 0.99 0.94 0.83 0.71 1.00 0.66 0.52 0.48 0.53 1.08 0.89 0.64 0.62 0.68 0.36 0.17 0.14